Tracking 30922 objects as of 2-Jul-2025
HD Live streaming from Space Station
objects crossing your sky now

STARLINK-5956

Track STARLINK-5956 now!
10-day predictions
STARLINK-5956 is classified as:


NORAD ID: 55994
Int'l Code: 2023-042J
Perigee: 565.3 km
Apogee: 567.1 km
Inclination: 43.0 °
Period: 95.8 minutes
Semi major axis: 6937 km
RCS: Unknown
Launch date: March 24, 2022
Source: United States (US)
Launch site: AIR FORCE EASTERN TEST RANGE (AFETR)
Your satellite tracking list
Your tracking list is empty




NASA's NSSDC Master Catalog

Two Line Element Set (TLE):
1 55994U 23042J   25182.83155927 -.00000061  00000-0  10528-4 0  9999
2 55994  43.0057 339.3090 0001331 265.1448  94.9242 15.02536475125172
Source of the keplerian elements: AFSPC